Regional Weather Roundup
Issued by NWS Cleveland, OH

Home | Current Version | Previous Version | Graphics & Text | Print | Product List | Glossary On
Versions: 1 2 3 4 5 6 7 8 9 10 11 12 13 14 15 16 17 18 19 20 21 22 23 24 25 26 27 28 29 30 31 32 33 34 35 36 37 38 39 40 41 42 43 44 45 46 47 48 49 50
000
ASUS41 KCLE 300210
RWRCLE
OHIO REGIONAL WEATHER ROUNDUP
NATIONAL WEATHER SERVICE WILMINGTON, OH
1000 PM EDT TUE JUL 29 2014

NOTE: "FAIR" INDICATES FEW OR NO CLOUDS BELOW 12,000 FEET WITH NO
SIGNIFICANT WEATHER AND/OR OBSTRUCTIONS TO VISIBILITY.

OHZ001>008-015>018-024>027-034-035-043-044-300300-
   NORTHWEST OHIO

CITY           SKY/WX    TMP DP  RH WIND       PRES   REMARKS
DEFIANCE       CLEAR     62  59  90 CALM      30.00R
FINDLAY        PTCLDY    62  57  83 SW5       30.00R
TOLEDO EXPRESS MOCLDY    65  56  72 SW7       29.99R
TOLEDO METCALF MOCLDY    67  56  67 SW9       29.99R
LIMA           MOCLDY    63  59  87 S9        30.02R
$$

OHZ009>014-019>023-028>033-038-089-300300-
   NORTHEAST OHIO

CITY           SKY/WX    TMP DP  RH WIND       PRES   REMARKS
CLE-HOPKINS    MOCLDY    64  53  67 S7        30.02R
CLE-LAKEFRONT  MOCLDY    67  52  58 S8        29.98R
CUY CO. ARPT   MOCLDY    61  54  77 S7        30.01R
LORAIN-ELYRIA  CLEAR     65  54  67 S7        30.01R
ASHTABULA      CLOUDY    60  53  77 S5        30.01S
AKRON-CANTON   CLOUDY    63  51  65 SW5       30.03R
WOOSTER        PTCLDY    59  52  77 SW5       30.04R
MANSFIELD      PTCLDY    58  54  86 S6        30.03R
YOUNGSTOWN     PTCLDY    58  52  80 CALM      30.02R
$$

OHZ042-051>053-060>062-070>072-077>081-300300-
  SOUTHWEST OHIO

CITY           SKY/WX    TMP DP  RH WIND       PRES   REMARKS
CINC-COVINGTON MOCLDY    63  57  81 SW3       30.06S
CINC-LUNKEN    CLEAR     62  57  83 CALM      30.06R
HAMILTON       PTCLDY    61  58  90 CALM      30.05S
DAYTON         PTCLDY    65  56  72 W3        30.05S
WRIGHT-PAT AFB MOCLDY    66  57  72 SW5       30.04S
DAYTON GENERAL CLEAR     67  55  65 SW6       30.04S
WILMINGTON     CLEAR     59  55  87 SW5       30.05S
$$

OHZ036-037-039>041-045>050-054>059-063>069-073>076-082>088-300300-
  CENTRAL AND SOUTHEAST OHIO

CITY           SKY/WX    TMP DP  RH WIND       PRES   REMARKS
COLUMBUS       MOCLDY    68  52  56 S5        30.04R
OSU AIRPORT    CLEAR     64  53  67 S5        30.04R
BOLTON FIELD   CLEAR     59  56  88 S5        30.05R
RICKENBACK AFB CLEAR     62  53  71 S5        30.04S
NEWARK         PTCLDY    58  55  90 CALM      30.05R
MARION         PTCLDY    60  55  83 S6        30.03R
LANCASTER      CLEAR     58  54  86 CALM      30.05S
ZANESVILLE     CLEAR     58  53  84 CALM      30.05R
NEW PHILLY     CLEAR     57  53  86 SE3       30.04S
$$


USA.gov is the U.S. government's official web portal to all federal, state and local government web resources and services.